Location: Chez-le-Prou
(45.7098°N, 2.0475°E)
Time: 21:39:46
(UTC+00:00)

Daily predictions for brighter satellites

Satellite Brightness Start Highest point End
(mag) Time Altitude Azimuth Time Altitude Azimuth Time Altitude Azimuth
In-Cosmos 22 4.4 18:27:48 10° N 18:33:21 55° ENE 18:38:59 10° SSE
USA 215 3.8 18:28:07 10° NE 18:34:34 63° NNW 18:40:59 10° WSW
Cosmos 676 Rocket 4.2 18:29:36 10° NNW 18:34:41 51° ENE 18:39:47 10° SE
KORONAS-FOTON 4.2 18:32:21 10° N 18:35:58 40° ENE 18:39:35 10° SSE
Cosmos 2322 Rocket 3.7 18:30:55 10° NW 18:36:14 41° WSW 18:41:31 10° S
Cosmos 2333 4.4 18:31:49 10° NNW 18:37:39 86° WSW 18:43:25 10° SSE
Cosmos 1842 3.2 18:34:41 10° N 18:38:31 89° W 18:42:19 10° S
Cosmos 2237 Rocket 3.6 18:34:19 10° N 18:38:36 21° NE 18:42:51 10° E
Exosat Rocket 3.8 18:34:57 10° S 18:39:55 57° ESE 18:46:09 10° NNE
USA 307 3.5 18:36:28 10° WNW 18:40:10 47° SW 18:43:50 10° SSE
Cosmos 1190 Rocket 4.1 18:38:01 10° NNW 18:43:15 86° WSW 18:48:28 10° SSE
USA 186 3.1 18:41:31 10° ESE 18:43:56 21° ENE 18:46:22 10° NNE
FALCON 9 R/B 4.4 18:42:10 10° SSW 18:45:41 16° SSE 18:52:33 10° SE
Meteor 1-21 4.4 18:43:34 10° N 18:49:06 55° ENE 18:54:37 10° SSE
Okean 3 3.4 18:44:57 10° N 18:49:09 64° E 18:53:20 10° SSE
CZ-4B R/B 3.3 18:47:31 10° SSE 18:53:11 86° ENE 18:58:51 10° NNW
Cosmos 1707 2.6 18:50:26 10° N 18:54:15 80° E 18:58:01 10° S
Cosmos 1727 Rocket 4.2 18:48:17 10° S 18:54:36 84° W 19:00:56 10° N
Cosmos 2322 3.7 18:49:26 10° NNW 18:55:07 76° ENE 19:00:46 10° SSE
Okean 1-7 3.0 18:51:21 10° N 18:55:45 74° E 19:00:04 10° SSE
Cosmos 1954 Rocket 4.0 18:51:05 10° NNW 18:56:21 86° ENE 19:01:37 10° SSE
Lacrosse 5 rocket 2.9 18:54:05 10° SSE 18:57:00 18° SE 18:59:08 13° E
Cosmos 1805 4.3 18:54:30 10° SE 18:57:35 24° E 19:00:42 10° NE
Cosmos 1674 2.5 18:54:56 10° N 18:58:39 72° E 19:02:21 10° SSE
Cosmos 2219 Rocket 2.4 18:56:03 10° NNW 19:01:46 78° WSW 19:07:25 10° SSE
Cosmos 1933 Rocket 3.4 18:57:30 10° S 19:01:48 74° E 19:06:08 10° NNE
Cosmos 1975 2.8 18:58:02 10° S 19:01:54 56° E 19:05:49 10° NNE
SJ-6B 3.0 18:58:53 10° SSE 19:02:40 50° ENE 19:06:25 10° N
Cosmos 2333 Rocket 3.2 18:58:07 10° NW 19:03:41 51° WSW 19:09:14 10° S
Meteor 2-9 Rocket 4.4 19:00:25 10° SSW 19:05:55 73° WNW 19:11:19 10° N
USA 308 4.3 19:03:23 10° WNW 19:06:38 28° SW 19:09:51 10° SSE
SL-8 R/B 4.4 19:02:05 10° WNW 19:06:42 49° SSW 19:11:06 11° SE
Cosmos 1726 2.9 19:04:00 10° SSE 19:07:00 27° E 19:10:02 10° NNE
CSL-04 Debris 4.3 19:02:58 10° SE 19:08:12 54° ENE 19:13:30 10° N
USA 267 3.9 19:03:47 10° SSE 19:10:11 54° SW 19:16:38 10° WNW
Cosmos 1869 Rocket 3.7 19:07:19 10° SSE 19:11:27 47° E 19:15:37 10° NNE
BREEZE-M DEB (TANK) 3.2 19:07:55 10° WNW 19:12:00 35° SW 19:13:56 13° SSE
Cosmos 1900 4.3 19:07:12 10° SSW 19:12:10 84° ESE 19:17:06 10° NE
Cosmos 2061 Rocket 4.3 19:06:34 10° N 19:12:51 51° ENE 19:19:03 10° SSE
COSMOS 2428 2.7 19:09:07 10° NNW 19:14:53 82° ENE 19:20:38 10° SSE
Landsat 5 4.5 19:13:13 10° NE 19:16:16 22° E 19:17:14 20° ESE
SL-14 R/B 3.8 19:13:37 10° N 19:17:11 35° ENE 19:19:23 19° SE
Cosmos 2297 Rocket 2.9 19:14:50 10° SSE 19:19:39 30° ESE 19:24:30 10° NE
Cosmos 1459 Rocket 4.0 19:14:00 10° N 19:20:05 82° W 19:26:09 10° S
USA 281 4.0 19:15:25 10° NNE 19:21:49 56° WNW 19:28:11 10° SW
NOSS 3-2 (A) 4.1 19:14:54 10° NW 19:22:25 83° NE 19:30:28 13° SE
Cosmos 1867 3.8 19:17:59 10° S 19:23:08 45° ESE 19:28:20 10° NE
IGS 5A 3.9 19:21:40 10° S 19:25:45 63° W 19:29:51 10° NNW
Resurs 01 Rocket 2.4 19:25:55 23° ESE 19:27:49 33° ENE 19:31:47 10° N
Cosmos 1725 Rocket 3.9 19:23:45 10° N 19:29:58 76° E 19:36:09 10° SSE
Cosmos 1733 3.0 19:27:49 10° S 19:31:35 77° E 19:35:21 10° NNE
CZ-4C R/B 4.2 19:26:31 10° NNW 19:31:50 24° NNE 19:36:50 13° ENE
Landsat 7 3.7 19:27:53 10° SSE 19:32:36 87° ENE 19:37:20 10° NNW
NOSS 3-2 (C) 4.2 19:25:34 10° NW 19:32:54 62° NE 19:38:47 21° ESE
CENTAUR R/B 3.3 19:24:40 10° NW 19:32:58 85° SW 19:41:25 13° SSE
Cosmos 1626 4.0 19:30:18 10° NNW 19:33:29 31° W 19:36:38 10° SSW
Cosmos 2227 Rocket 3.1 19:31:03 10° SSE 19:35:32 25° ESE 19:40:01 10° NE
Cosmos 1818 4.3 19:30:52 10° NW 19:36:09 51° WSW 19:41:23 10° SSE
CZ-4 R/B 2.9 19:33:15 10° SSW 19:36:46 35° W 19:40:21 10° NNW
Cosmos 192 4.3 19:36:35 10° SSW 19:41:33 88° ESE 19:46:32 10° NNE
Cosmos 2098 Rocket 3.9 19:36:24 10° S 19:41:41 81° W 19:48:08 10° N
Terra 4.0 19:42:45 11° NE 19:42:45 11° NE 19:43:35 10° NE
Geosat 4.1 19:40:51 27° SE 19:43:29 59° ENE 19:48:26 10° NNW
Iridium 4 Rocket 2.9 19:39:26 10° N 19:43:38 89° W 19:47:48 10° S
Resurs 1-3 3.7 19:40:43 10° S 19:45:05 77° WSW 19:49:29 10° NNW
Cosmos 1802 Rocket 4.4 19:40:13 10° NNW 19:46:25 66° W 19:52:40 10° S
USA 238 DEB 4.1 19:39:20 10° NW 19:46:32 59° NE 19:50:50 27° ESE
USA 238 4.1 19:39:26 10° NW 19:46:37 59° NE 19:50:55 27° ESE
SL-16 R/B 3.5 19:43:34 10° N 19:48:10 24° NE 19:49:39 22° ENE
Meteor 2-10 4.0 19:47:52 10° SSW 19:52:54 80° WNW 19:58:00 10° N
Cosmos 1674 Rocket 4.5 19:49:12 10° NNE 19:52:42 29° ENE 19:52:42 29° ENE
Cosmos 1733 Rocket 3.2 19:53:01 43° ESE 19:53:39 46° E 19:57:47 10° NNE
Cosmos 1850 Rocket 4.0 19:48:33 10° NNW 19:53:55 88° WSW 19:57:17 23° SSE
Okean-O 2.6 19:52:20 20° SSE 19:55:20 85° WSW 19:59:48 10° NNW
CARTOSAT-1 3.9 19:58:45 41° ENE 19:58:55 42° ENE 20:02:59 10° N
SPOT 1/Viking Rocket 3.4 19:55:57 25° SSE 19:59:02 79° ENE 20:04:15 10° NNW
Okean 2 3.7 19:55:18 10° NNW 19:59:20 63° W 20:02:15 18° S
Cosmos 2016 Rocket 4.4 19:53:41 10° NNW 19:59:42 62° W 20:05:43 10° S
Cosmos 1110 Rocket 3.8 19:55:13 10° SSW 20:00:25 79° ESE 20:05:38 10° NNE
NOSS 0 Rocket 4.1 19:54:42 10° NNW 20:00:52 73° WSW 20:05:06 21° SSE
SPOT 5 4.2 20:02:23 23° NE 20:02:23 23° NE 20:05:40 10° NNE
Okean O Rocket 3.8 20:00:06 10° SSW 20:03:48 26° W 20:07:30 10° NW
Cosmos 1378 Rocket 4.1 20:00:09 10° N 20:04:03 40° ENE 20:04:03 40° ENE
SL-4 R/B 4.2 20:01:14 10° SSW 20:02:29 16° S 20:02:29 16° S
Cosmos 2221 Rocket 3.8 20:01:08 10° N 20:05:26 48° ENE 20:05:26 48° ENE
BREEZE-M DEB (TANK) 2.9 20:02:52 10° WNW 20:08:06 53° N 20:08:22 51° NNE
ISS -2.2 20:05:24 10° WNW 20:08:23 28° N 20:08:42 28° NNE
CSL-04 Rocket 4.4 20:06:39 10° S 20:12:03 52° W 20:17:29 10° NNW
Cosmos 1447 Rocket 4.3 20:08:58 10° S 20:15:11 77° E 20:21:23 10° N
Cosmos 1452 Rocket 4.0 20:10:20 10° SW 20:15:32 60° WNW 20:20:47 10° NNE
USA 186 4.4 20:13:39 10° SW 20:15:57 19° W 20:18:17 10° NW
ADEOS Rocket 4.0 20:15:26 29° ENE 20:16:20 31° ENE 20:22:13 10° N
Cosmos 1766 3.3 20:17:38 63° NNE 20:17:38 63° NNE 20:20:53 10° N
Cosmos 1331 Rocket 4.0 20:12:15 10° SSW 20:17:24 82° WNW 20:22:37 10° NNE
H-2A R/B 3.4 20:23:55 38° NE 20:23:55 38° NE 20:27:13 10° N
Cosmos 2237 Rocket 2.2 20:17:39 10° NNW 20:23:18 76° WSW 20:25:11 43° S
Meteor 1-15 Rocket 4.3 20:24:43 55° ESE 20:25:04 56° E 20:30:48 10° NNE
MetOp-B 4.0 20:29:53 64° ESE 20:30:20 68° ENE 20:35:40 10° N
ATLAS CENTAUR R/B 4.4 20:15:25 10° SW 20:31:59 76° NW 20:39:32 10° NE
Cosmos 2346 Rocket 4.4 20:31:21 57° SE 20:32:06 61° E 20:38:11 10° NNE
Lacrosse 5 rocket 1.9 20:31:11 10° SW 20:34:34 53° WSW 20:34:34 53° WSW
Cosmos 968 Rocket 3.3 20:31:57 10° NNW 20:37:09 89° WSW 20:37:26 81° SSE
SJ 16-02 3.3 20:34:22 10° N 20:36:14 19° NNE 20:36:14 19° NNE
Meteor 1-12 Rocket 4.1 20:38:17 67° SSE 20:38:56 75° E 20:44:40 10° NNE
FALCON 9 R/B 3.7 20:24:36 10° WSW 20:43:27 44° SSW 20:45:16 39° SSE
ERS-1 Rocket 3.8 20:44:49 37° NNE 20:44:49 37° NNE 20:48:23 10° N
Cosmos 1980 4.4 20:39:04 10° NW 20:44:32 49° WSW 20:46:15 37° SSW
Cosmos 1513 Rocket 4.3 20:41:04 10° N 20:47:12 80° E 20:47:45 73° SE
Meteor 1-24 Rocket 3.8 20:41:27 10° N 20:47:15 66° ENE 20:47:15 66° ENE
Ariane Rocket 3.0 20:49:52 71° NNE 20:49:52 71° NNE 20:54:27 10° NNW
BREEZE-M DEB (TANK) 3.1 20:44:42 10° WNW 20:50:40 68° NNE 20:50:42 68° NNE
Meteor 2-15 4.2 20:45:22 10° N 20:51:33 79° E 20:51:49 77° ESE
Meteor 2-8 Rocket 4.3 20:47:11 10° N 20:53:21 74° E 20:53:21 74° E
Meteor 2-15 Rocket 4.4 20:51:20 10° N 20:57:03 66° NE 20:57:03 66° NE
Spot 2 Rocket 4.2 21:01:35 44° NNE 21:01:35 44° NNE 21:05:15 10° N
Cosmos 1302 Rocket 4.2 21:02:14 67° NNW 21:02:14 67° NNW 21:07:07 10° NNE
Cosmos 2297 Rocket 3.2 20:58:05 10° SW 21:03:29 46° WNW 21:08:55 10° NNE
Resurs 01 Rocket 3.4 21:03:26 25° WSW 21:04:20 27° W 21:08:05 10° NW
Cosmos 2034 Rocket 4.1 21:02:33 10° N 21:07:52 60° NE 21:07:52 60° NE
SPOT 3 Rocket 4.0 21:12:40 56° NNW 21:12:40 56° NNW 21:16:47 10° NNW
Cosmos 2219 4.2 21:13:55 38° NNE 21:13:55 38° NNE 21:17:17 10° NNE
Meteor 2-5 Rocket 3.9 21:08:57 10° NNW 21:14:30 70° WNW 21:14:30 70° WNW
ATLAS 3B R/B 4.4 21:09:12 10° NNW 21:15:15 26° NNE 21:17:41 22° NE
Cosmos 2227 Rocket 2.8 21:13:39 10° SW 21:19:12 55° WNW 21:24:46 10° NNE
Terra 3.3 21:21:29 32° N 21:21:29 32° N 21:24:01 10° N
CZ-4C R/B 3.0 21:14:37 10° NW 21:21:41 63° NE 21:21:59 62° ENE
SL-16 R/B 2.9 21:27:08 10° NNW 21:31:32 51° WNW 21:31:32 51° WNW
USA 215 4.4 21:57:51 33° NNE 21:58:57 36° N 22:04:46 10° NW
ADEOS Rocket 3.8 22:02:22 51° WNW 22:02:22 51° WNW 22:08:10 10° NNW
SJ 16-02 4.3 22:12:27 10° NW 22:13:07 14° NW 22:13:07 14° NW
ATLAS 3B R/B 3.8 22:59:55 10° NW 23:04:56 44° NNW 23:04:56 44° NNW
CZ-4C R/B 4.4 23:03:21 10° NW 23:07:09 29° WNW 23:07:09 29° WNW
Cosmos 2344 4.3 23:11:39 10° NW 23:18:50 68° NNW 23:18:50 68° NNW
